This is the latest recevied weather packets stored in our database for station/object IK6IHU-3. If no packets are shown the sender has not sent any weather packets the latest 10 day(s).
| Time | Temp. | Humidity | Pressure | Rain* | Wind** | Luminosity | Snow |
|---|---|---|---|---|---|---|---|
| 1777278844 | 21.11° C | 42% | 1018.1 hPa | 0 mm | - | 0 W/m² | - |
| 1777278785 | 21.11° C | 42% | 1018.2 hPa | 0 mm | - | 0 W/m² | - |
| 1777278724 | 21.11° C | 41% | 1018.2 hPa | 0 mm | - | 0 W/m² | - |
| 1777278664 | 21.11° C | 39% | 1018.1 hPa | 0 mm | - | 0 W/m² | - |
| 1777278605 | 21.67° C | 43% | 1018.2 hPa | 0 mm | - | 0 W/m² | - |
| 1777278544 | 21.11° C | 40% | 1018.3 hPa | 0 mm | - | 0 W/m² | - |
| 1777278484 | 21.67° C | 40% | 1018.2 hPa | 0 mm | - | 0 W/m² | - |
| 1777278424 | 21.67° C | 40% | 1018.2 hPa | 0 mm | - | 0 W/m² | - |
| 1777278364 | 21.11° C | 41% | 1018.2 hPa | 0 mm | - | 0 W/m² | - |
| 1777278304 | 21.11° C | 44% | 1018.1 hPa | 0 mm | - | 0 W/m² | - |
| 1777278244 | 21.11° C | 40% | 1018.3 hPa | 0 mm | - | 0 W/m² | - |
| 1777278184 | 21.11° C | 41% | 1018.3 hPa | 0 mm | - | 0 W/m² | - |
| 1777278124 | 21.67° C | 44% | 1018.2 hPa | 0 mm | - | 0 W/m² | - |
| 1777278064 | 21.67° C | 44% | 1018.2 hPa | 0 mm | - | 0 W/m² | - |
| 1777278004 | 21.11° C | 42% | 1018 hPa | 0 mm | - | 0 W/m² | - |
| 1777277944 | 21.67° C | 42% | 1018.2 hPa | 0 mm | - | 0 W/m² | - |
| 1777277884 | 21.67° C | 42% | 1018.2 hPa | 0 mm | - | 0 W/m² | - |
| 1777277824 | 21.11° C | 42% | 1018.1 hPa | 0 mm | - | 0 W/m² | - |
| 1777277764 | 21.11° C | 40% | 1018.2 hPa | 0 mm | - | 0 W/m² | - |
| 1777277704 | 21.11° C | 43% | 1018.2 hPa | 0 mm | - | 0 W/m² | - |
| 1777277644 | 21.67° C | 45% | 1018.2 hPa | 0 mm | - | 0 W/m² | - |
| 1777277584 | 21.11° C | 44% | 1018 hPa | 0 mm | - | 0 W/m² | - |
| 1777277524 | 21.11° C | 45% | 1018.1 hPa | 0 mm | - | 0 W/m² | - |
| 1777277464 | 21.11° C | 45% | 1018 hPa | 0 mm | - | 0 W/m² | - |
| 1777277404 | 21.11° C | 43% | 1018 hPa | 0 mm | - | 0 W/m² | - |
* Rain latest hour (hover to see other rain measurements)
** Current wind speed in m/s (hover to see current wind gust speed)